Starlink 3071

operational
NORAD ID: 49147 Int'l Des: 2021-082 Owner: SPXS Country: US Constellation: starlink
LEOCIRCULAR

Starlink 3071について

説明を読み込み中...

リアルタイム位置

3D地球を読み込み中...

次回通過

高度履歴

Altitude vs Time

uPlot chart will show altitude changes over time

軌道要素

1 49147U 21082T 25350.74753777 .00001258 00000-0 11316-3 0 9991
2 49147 69.9999 103.5855 0003529 268.4766 91.5989 14.98336814234549
Epoch: Dec 16, 2025 • Age: 13 hours

現在のステータス

高度 582.3 km
速度 7.57 km/s
衛星直下点 53.68°N, 57.04°E
打ち上げ日 Sep 14, 2021
運用期間 4.2 years
タイプ internet

技術仕様

分類 Payload
質量 297.00 kg
乾燥質量 275.00 kg
総質量 297.00 kg
長さ 0.20 m
直径 2.80 m
スパン 9.00 m
形状 Box + pan
製造者 SPXS
バスタイプ Starlink
フェーズステータス In Orbit
所有者/国 SPXS/US

大規模コンステレーション

Loading constellations...